sat.trackr.live / text

‹ back to catalog

STARLINK-34935

NORAD 65277 · 2025-184E

PAYLOAD ACTIVE UNKNOWN

§ Identity

Operator
Country
US
Launch date
2025-08-22
Launch site
AFWTR
Launch vehicle
Mass (kg)
RCS (m²)

Purposes: comms

External: N2YO · Heavens-Above · Gunter

§ Orbital elements

Epoch: 2026-09-20T20:27:15.502464Z

Period
93.91 min
Inclination
97.2840°
Eccentricity
0.0001094
Mean motion
15.33444745 rev/d
Perigee alt
464.8 km
Apogee alt
466.3 km
Semi-major
6,843.7 km
B*
2.1492e-4
RAAN
311.7471°
Arg perigee
97.9720°
Mean anomaly
262.1647°
Rev number
6,077

§ Raw data

STARLINK-349351 65277U 25184E   26263.85226276  .00006870  00000+0  21492-3 0  99952 65277  97.2840 311.7471 0001094  97.9720 262.1647 15.33444745 60779

JSON: /api/v1/satellites/65277 · /tle

For live sub-satellite position, see the globe view (requires WebGL).

§ Visibility from observer

Set your observer location to see the next 7 days of passes ≥ 10°. The values pass through the URL so the page stays shareable.

No JS? Fill the form by hand. The geolocation button needs JavaScript.